Location: Newark
(14.4833°N, 101.9000°E)
Time: 20:01:25
(UTC+00:00)

Hubble Space Telescope - Visible Passes

Search period start: 27 September 2020 00:00
Search period end: 07 October 2020 00:00
Orbit: 536 x 540 km, 28.5° (Epoch: 27 September)

Date Brightness Start Highest point End Pass type
(mag) Time Alt. Az. Time Alt. Az. Time Alt. Az.
27 Sep 3.0 21:48:24 12° NNW 21:49:20 13° N 21:51:14 10° NNE visible
28 Sep 3.2 21:38:21 12° NNW 21:38:47 12° N 21:40:23 10° NNE visible
29 Sep 3.3 21:28:17 11° N 21:28:17 11° N 21:29:35 10° NNE visible
30 Sep 3.4 21:18:14 11° N 21:18:14 11° N 21:18:56 10° NNE visible
01 Oct 3.6 21:08:12 10° NNE 21:08:12 10° NNE 21:08:28 10° NNE visible
02 Oct 2.7 22:35:20 10° NW 22:38:34 22° NNE 22:41:49 10° ENE visible
03 Oct 2.4 22:24:25 10° NW 22:27:57 27° NNE 22:31:27 10° ENE visible
04 Oct 2.1 22:13:38 11° NW 22:17:17 33° NNE 22:21:02 10° E visible
05 Oct 1.7 22:03:46 17° NW 22:06:36 43° NNE 22:10:32 10° E visible
06 Oct 1.2 21:53:58 28° NW 21:55:55 57° NNE 21:59:58 10° ESE visible
